Tiempo cada hora Abbey

Hoy, 28 Octubre, Miércoles

Tiempo Temperatura Precipitaciones Viento Presión Humedad
00:00 +2°C° 0 mm 5 mps 699 mmHg 83%
01:00 +1°C° 0 mm 5 mps 700 mmHg 83%
02:00 +1°C° 0 mm 4 mps 700 mmHg 83%
03:00 0°C° 0 mm 4 mps 701 mmHg 85%
04:00 0°C° 0 mm 4 mps 701 mmHg 86%
05:00 0°C° 0 mm 4 mps 702 mmHg 88%
06:00 0°C° 0 mm 4 mps 703 mmHg 88%
07:00 0°C° 0 mm 4 mps 703 mmHg 87%
08:00 -1°C° 0 mm 4 mps 703 mmHg 87%
09:00 0°C° 0 mm 4 mps 704 mmHg 80%
10:00 +1°C° 0 mm 4 mps 704 mmHg 73%
11:00 +3°C° 0 mm 4 mps 704 mmHg 66%
12:00 +4°C° 0 mm 4 mps 704 mmHg 62%
13:00 +4°C° 0 mm 3 mps 704 mmHg 57%
14:00 +5°C° 0 mm 3 mps 704 mmHg 53%
15:00 +5°C° 0 mm 2 mps 704 mmHg 57%
16:00 +4°C° 0 mm 2 mps 704 mmHg 62%
17:00 +3°C° 0 mm 1 mps 703 mmHg 66%
18:00 +3°C° 0 mm 1 mps 703 mmHg 66%
19:00 +3°C° 0 mm 1 mps 703 mmHg 67%
20:00 +3°C° 0 mm 1 mps 703 mmHg 68%
21:00 +1°C° 0 mm 2 mps 703 mmHg 71%
22:00 0°C° 0 mm 3 mps 703 mmHg 74%
23:00 0°C° 0 mm 3 mps 702 mmHg 77%

Mañana, 29 Octubre, Jueves

Tiempo Temperatura Precipitaciones Viento Presión Humedad
00:00 0°C° 0 mm 3 mps 702 mmHg 81%
01:00 0°C° 0 mm 3 mps 701 mmHg 86%
02:00 -2°C° 0 mm 4 mps 701 mmHg 90%
03:00 0°C° 0 mm 3 mps 700 mmHg 91%
04:00 0°C° 0 mm 3 mps 700 mmHg 91%
05:00 0°C° 0 mm 3 mps 699 mmHg 92%
06:00 -1°C° 0 mm 2 mps 699 mmHg 92%
07:00 -1°C° 0 mm 2 mps 699 mmHg 92%
08:00 +1°C° 0 mm 1 mps 699 mmHg 92%
09:00 +2°C° 0 mm 2 mps 700 mmHg 86%
10:00 +2°C° 0 mm 3 mps 700 mmHg 80%
11:00 +3°C° 0 mm 4 mps 700 mmHg 74%
12:00 +4°C° 0 mm 4 mps 701 mmHg 73%
13:00 +5°C° 0 mm 5 mps 701 mmHg 72%
14:00 +4°C° 0 mm 6 mps 701 mmHg 71%
15:00 +3°C° 0 mm 5 mps 702 mmHg 75%
16:00 +4°C° 0 mm 4 mps 702 mmHg 78%
17:00 +3°C° 0 mm 3 mps 702 mmHg 81%
18:00 +3°C° 0 mm 2 mps 702 mmHg 83%
19:00 +2°C° 0 mm 2 mps 703 mmHg 86%
20:00 +3°C° 0 mm 1 mps 703 mmHg 88%
21:00 +2°C° 0 mm 1 mps 703 mmHg 89%
22:00 +2°C° 0 mm 1 mps 703 mmHg 90%
23:00 +2°C° 0 mm 1 mps 703 mmHg 91%

Pasado mañana, 30 Octubre, Viernes

Tiempo Temperatura Precipitaciones Viento Presión Humedad
00:00 +1°C° 0 mm 2 mps 702 mmHg 91%
01:00 0°C° 0 mm 3 mps 702 mmHg 91%
02:00 0°C° 0 mm 3 mps 702 mmHg 91%
03:00 -1°C° 0 mm 4 mps 700 mmHg 90%
04:00 -2°C° 0 mm 4 mps 699 mmHg 89%
05:00 -2°C° 0 mm 5 mps 698 mmHg 88%
06:00 -1°C° 0 mm 5 mps 697 mmHg 86%
07:00 -2°C° 0 mm 6 mps 696 mmHg 84%
08:00 -1°C° 0 mm 6 mps 695 mmHg 82%
09:00 +1°C° 0 mm 6 mps 694 mmHg 76%
10:00 +3°C° 0 mm 7 mps 692 mmHg 69%
11:00 +4°C° 0 mm 7 mps 691 mmHg 63%
12:00 +6°C° 0 mm 7 mps 690 mmHg 56%
13:00 +9°C° 0 mm 8 mps 689 mmHg 49%
14:00 +11°C° 0 mm 8 mps 688 mmHg 43%
15:00 +8°C° 0 mm 9 mps 688 mmHg 48%
16:00 +7°C° 0 mm 9 mps 687 mmHg 52%
17:00 +6°C° 0 mm 10 mps 687 mmHg 57%
18:00 +5°C° 0 mm 9 mps 688 mmHg 63%
19:00 +3°C° 0 mm 9 mps 689 mmHg 68%
20:00 +2°C° 0 mm 9 mps 690 mmHg 74%
21:00 +1°C° 0 mm 9 mps 692 mmHg 76%
22:00 +1°C° 0 mm 8 mps 693 mmHg 77%
23:00 0°C° 0 mm 8 mps 694 mmHg 79%

31 Octubre, Sábado

Tiempo Temperatura Precipitaciones Viento Presión Humedad
00:00 0°C° 0 mm 9 mps 696 mmHg 74%
01:00 0°C° 0 mm 10 mps 697 mmHg 69%
02:00 -2°C° 0 mm 11 mps 698 mmHg 65%
03:00 -3°C° 0 mm 10 mps 699 mmHg 66%
04:00 -2°C° 0 mm 8 mps 700 mmHg 68%
05:00 -3°C° 0 mm 7 mps 701 mmHg 70%
06:00 -3°C° 0 mm 7 mps 702 mmHg 70%
07:00 -3°C° 0 mm 7 mps 703 mmHg 70%
08:00 -4°C° 0 mm 8 mps 704 mmHg 70%
09:00 -4°C° 0 mm 8 mps 705 mmHg 64%
10:00 -2°C° 0 mm 8 mps 705 mmHg 59%
11:00 -1°C° 0 mm 9 mps 706 mmHg 53%
12:00 0°C° 0 mm 8 mps 707 mmHg 48%
13:00 +1°C° 0 mm 8 mps 707 mmHg 43%
14:00 +1°C° 0 mm 8 mps 707 mmHg 38%
15:00 +2°C° 0 mm 6 mps 708 mmHg 41%
16:00 +1°C° 0 mm 5 mps 708 mmHg 44%
17:00 +1°C° 0 mm 3 mps 708 mmHg 47%
18:00 +1°C° 0 mm 3 mps 708 mmHg 50%
19:00 0°C° 0 mm 3 mps 709 mmHg 52%
20:00 0°C° 0 mm 3 mps 709 mmHg 54%
21:00 0°C° 0 mm 3 mps 709 mmHg 54%
22:00 0°C° 0 mm 3 mps 709 mmHg 55%
23:00 -1°C° 0 mm 3 mps 709 mmHg 55%

1 Noviembre, Domingo

Tiempo Temperatura Precipitaciones Viento Presión Humedad
00:00 -1°C° 0 mm 3 mps 709 mmHg 54%
01:00 0°C° 0 mm 3 mps 709 mmHg 53%
02:00 0°C° 0 mm 3 mps 709 mmHg 53%
03:00 0°C° 0 mm 3 mps 709 mmHg 52%
04:00 0°C° 0 mm 3 mps 709 mmHg 50%
05:00 0°C° 0 mm 3 mps 709 mmHg 49%
06:00 -1°C° 0 mm 4 mps 709 mmHg 50%
07:00 -1°C° 0 mm 4 mps 709 mmHg 52%
08:00 -1°C° 0 mm 4 mps 709 mmHg 53%
09:00 +1°C° 0 mm 4 mps 709 mmHg 49%
10:00 +3°C° 0 mm 5 mps 708 mmHg 45%
11:00 +6°C° 0 mm 5 mps 708 mmHg 41%
12:00 +6°C° 0 mm 5 mps 708 mmHg 43%
13:00 +7°C° 0 mm 5 mps 708 mmHg 45%
14:00 +8°C° 0 mm 5 mps 707 mmHg 47%
15:00 +7°C° 0 mm 5 mps 707 mmHg 52%
16:00 +6°C° 0 mm 4 mps 707 mmHg 57%
17:00 +5°C° 0 mm 4 mps 707 mmHg 63%
18:00 +5°C° 0 mm 4 mps 707 mmHg 64%
19:00 +4°C° 0 mm 4 mps 707 mmHg 65%
20:00 +4°C° 0 mm 4 mps 707 mmHg 67%
21:00 +4°C° 0 mm 4 mps 706 mmHg 68%
22:00 +4°C° 0 mm 4 mps 706 mmHg 69%
23:00 +4°C° 0 mm 4 mps 706 mmHg 69%

2 Noviembre, Lunes

Tiempo Temperatura Precipitaciones Viento Presión Humedad
00:00 +4°C° 0 mm 4 mps 706 mmHg 69%
01:00 +4°C° 0 mm 4 mps 706 mmHg 69%
02:00 +4°C° 0 mm 4 mps 705 mmHg 68%
03:00 +4°C° 0 mm 3 mps 705 mmHg 67%
04:00 +5°C° 0 mm 2 mps 705 mmHg 66%
05:00 +4°C° 0 mm 2 mps 704 mmHg 65%
06:00 +4°C° 0 mm 3 mps 704 mmHg 62%
07:00 +4°C° 0 mm 3 mps 703 mmHg 60%
08:00 +5°C° 0 mm 4 mps 703 mmHg 57%
09:00 +7°C° 0 mm 5 mps 702 mmHg 53%
10:00 +8°C° 0 mm 5 mps 702 mmHg 48%
11:00 +10°C° 0 mm 6 mps 701 mmHg 44%
12:00 +11°C° 0 mm 6 mps 701 mmHg 40%
13:00 +14°C° 0 mm 5 mps 700 mmHg 37%
14:00 +15°C° 0 mm 5 mps 699 mmHg 33%
15:00 +13°C° 0 mm 5 mps 699 mmHg 37%
16:00 +12°C° 0 mm 5 mps 698 mmHg 40%
17:00 +10°C° 0 mm 5 mps 697 mmHg 44%
18:00 +10°C° 0 mm 5 mps 696 mmHg 45%
19:00 +9°C° 0 mm 5 mps 696 mmHg 46%
20:00 +9°C° 0 mm 6 mps 695 mmHg 47%
21:00 +9°C° 0 mm 6 mps 695 mmHg 45%
22:00 +9°C° 0 mm 7 mps 695 mmHg 44%
23:00 +9°C° 0 mm 7 mps 695 mmHg 43%
Mostrar más

Necesitamos Su Consentimiento

Meteoprog y nuestros Proveedores de Servicios pueden almacenar y acceder a sus datos personales como cookies, identificadores de dispositivo u otras tecnologías similares de su dispositivo y procesar dichos datos para personalizar contenido y anuncios, además de ofrecer funciones de redes sociales y analizar el tráfico.

  • Almacenar y/o acceder a información en su dispositivo

    Se puede almacenar o acceder a cookies, identificadores de dispositivo u otra información de su dispositivo para los fines anteriormente indicados.

  • Anuncios y contenido personalizados, medición de anuncios y contenido, percepciones del público, y desarrollo de productos

    Los anuncios y el contenido pueden personalizarse en base a su perfil. Se pueden añadir más datos para personalizar mejor los anuncios y contenidos. Se puede medir el rendimiento de los anuncios y contenidos. Se puede obtener la percepción sobre el público que ha visto los anuncios y contenidos. Dichos datos pueden usarse para desarrollar o mejorar la experiencia del usuario, sistemas y software.

Al hacer clic en ‘Estoy De Acuerdo’ usted permitirá el uso de las cookies, identificadores de dispositivo, balizas web u otras tecnologías similares indicadas. Su configuración puede cambiarse desde el navegador de su dispositivo.

Para ciertos fines, los intereses legítimos pueden ser considerados por encima del consentimiento. Puede leer más sobre ello en nuestra Política de Privacidad y Cookies.